sat.trackr.live / text

‹ back to catalog

STARLINK-11371 [DTC]

NORAD 62879 · 2025-024A

PAYLOAD ACTIVE UNKNOWN

§ Identity

Operator
Country
US
Launch date
2025-02-04
Launch site
AFETR
Launch vehicle
Mass (kg)
RCS (m²)

Purposes: comms

External: N2YO · Heavens-Above · Gunter

§ Orbital elements

Epoch: 2026-05-25T04:22:35.173056Z

Period
91.67 min
Inclination
43.0007°
Eccentricity
0.0001464
Mean motion
15.70902964 rev/d
Perigee alt
355.3 km
Apogee alt
357.3 km
Semi-major
6,734.5 km
B*
1.6583e-3
RAAN
80.6776°
Arg perigee
266.3551°
Mean anomaly
93.7149°
Rev number
7,549

§ Raw data

STARLINK-11371 [DTC]1 62879U 25024A   26145.18235154  .00218607  00000+0  16583-2 0  99902 62879  43.0007  80.6776 0001464 266.3551  93.7149 15.70902964 75496

JSON: /api/v1/satellites/62879 · /tle

For live sub-satellite position, see the globe view (requires WebGL).

§ Visibility from observer

Set your observer location to see the next 7 days of passes ≥ 10°. The values pass through the URL so the page stays shareable.

No JS? Fill the form by hand. The geolocation button needs JavaScript.